Portada
METAR-TAF:

METAR-TAF

Aeroports :

Sallisaw, Oklahoma, Estats Units d'Amèrica

latitud: 35-26-17N, longitud: 094-48-10W, altitud: 161 m

Observació

L'informe es va fer fa 5 minuts, a les 21:35 UTC
Vent 7 kt del Sud-Est amb ràfegues de 14 kt
Temperatura 14°C
Humitat 44%
Pressió 1022 hPa
Visibilitat: 16.1 km
Cel clar

METAR: KJSV 232135Z AUTO 14007G14KT 10SM CLR 14/02 A3018 RMK AO2

Hora: 15:40 (21:40 UTC)


TAF: manca

Observacions i pronòstics meteorològics de més de 4000 aeroports (METAR i TAF).

Les estacions disponibles són els punts grocs i vermells al mapa.

Posi el ratolí al punt desitjat per veure el nom de l'estació.

Feu clic per veure les observacions i els pronòstics meteorològics.

Per canviar el mapa: feu clic els botons verds amb una creu de color negre per apropar; al botó verd amb un guió per allunyar la imatge; o en les fletxes verdes per a mapes adjacents.


METAR-TAF: